Showing default

FLOCK 4G 9, 62622

Orbit data source: Space-Track

FLOCK 4G 9, 62622 is a payload satellite owned by Planet (US) in SSO that was launched on Tue, 14 Jan 2025 UTC via an FALCON 9 launch vehicle from the Air Force Western Test Range (AFWTR). Payload-class satellites include a variety of spacecraft equipped with specific instruments for various scientific and technological missions. These include communications satellites like Starlink; space stations such as the ISS; scientific satellites like the Hubble; Earth observation satellites from companies like Planet Labs, Umbra, and HawkEye 360; GPS; miniature CubeSats for education and research; and military/defense satellites.

Loading next visibility...
Identifier
62622, 2025-009P
Orbit
SSO
Country
Flag of USUS
Related business
Manufacturer
Planet
Mission
Operational Commercial Imaging
Bus & Motor
CUBESAT 3U, Unknown motor
Mass
5.7 kg wet, 5.7 kg dry
Launch date (UTC)
2025-01-14 (1 year ago)
Launch vehicle
FALCON 9
Launch site
Air Force Western Test Range (AFWTR)
Object type
Payload
Rocket body
Debris
Shape & HBR
Box + 2 Pan, 1.0 m
Radar Cross Section
0.072 m², Medium (>0.1 m² and < 1m²)

Expand to show TLE details & history
Last TLE update: 5 hours ago

TLE from 5 hours ago
0 FLOCK 4G 9
1 62622U 25009P   26122.48669793  .00010400  00000-0  39166-3 0  9992
2 62622  97.3965 203.8013 0006154 120.6464 239.5382 15.27270969 71889
Epoch: 2026-05-02T11:40Z
TLE epoch observation values (Epoch: 2026-05-02T11:40:50.701Z)
Latitude
-0.00005°
Longitude
168.18615°
Altitude
489.218 km
Speed
7.619 km/s
True Right ascension
13h 35m 12s
True Declination
0° 00' 00"
Sunlit
Object was in full shadow at epoch
Visualization orbit readout
Latitude
Unknown
Longitude
Unknown
Altitude
Unknown
Speed
Unknown
Apparent Right ascension
Unknown
Apparent Declination
Unknown
Sunlit
N/A
Visualization observer readout
Local Sidereal Time
00:38:27
Azimuth
Unknown
Elevation
Unknown
Doppler factor
Unknown
Orbital elements
Apogee altitude
485.151 km
Perigee altitude
476.709 km
Semi-major axis
6,859.067 km
Eccentricity
0.00062
Inclination
97.3965°
RAAN
203.8013°
Arg. of periapsis
120.6464°
True anomaly
239.47744°
Mean anomaly
239.5382°
Eccentric anomaly
239.50782°
Mean motion
3.82072 °/min
Orbital period
94.22 mins
BSTAR
0.00039166
Loading maneuver chart data...
Computing Atmospheric mass density...
Loading historical data...
Loading historical data...
Loading historical data...
Loading historical data...
Loading historical data...
Loading historical data...
Loading historical data...

Documentation

Showing up to 5 results
|